Year,Month,Day,Hour,Minute,Value (Times are PST for temperature in C)
2014,07,15,00,00,18.20
2014,07,15,00,01,18.20
2014,07,15,00,02,18.10
2014,07,15,00,03,18.10
2014,07,15,00,04,18.10
2014,07,15,00,05,18.10
2014,07,15,00,06,18.10
2014,07,15,00,07,18.00
2014,07,15,00,08,18.00
2014,07,15,00,09,18.00
2014,07,15,00,10,18.00
2014,07,15,00,11,18.00
2014,07,15,00,12,18.00
2014,07,15,00,13,17.90
2014,07,15,00,14,17.90
2014,07,15,00,15,17.90
2014,07,15,00,16,17.90
2014,07,15,00,17,17.90
2014,07,15,00,18,17.90
2014,07,15,00,19,17.80
2014,07,15,00,20,17.80
2014,07,15,00,21,17.80
2014,07,15,00,22,17.80
2014,07,15,00,23,17.80
2014,07,15,00,24,17.80
2014,07,15,00,25,17.80
2014,07,15,00,26,17.70
2014,07,15,00,27,17.70
2014,07,15,00,28,17.70
2014,07,15,00,29,17.70
2014,07,15,00,30,17.70
2014,07,15,00,31,17.70
2014,07,15,00,32,17.70
2014,07,15,00,33,17.70
2014,07,15,00,34,17.70
2014,07,15,00,35,17.60
2014,07,15,00,36,17.60
2014,07,15,00,37,17.60
2014,07,15,00,38,17.60
2014,07,15,00,39,17.60
2014,07,15,00,40,17.60
2014,07,15,00,41,17.60
2014,07,15,00,42,17.50
2014,07,15,00,43,17.50
2014,07,15,00,44,17.50
2014,07,15,00,45,17.50
2014,07,15,00,46,17.40
2014,07,15,00,47,17.40
2014,07,15,00,48,17.40
2014,07,15,00,49,17.40
2014,07,15,00,50,17.40
2014,07,15,00,51,17.40
2014,07,15,00,52,17.30
2014,07,15,00,53,17.30
2014,07,15,00,54,17.30
2014,07,15,00,55,17.30
2014,07,15,00,56,17.30
2014,07,15,00,57,17.30
2014,07,15,00,58,17.30
2014,07,15,00,59,17.20
2014,07,15,01,00,17.20
2014,07,15,01,01,17.20
2014,07,15,01,02,17.20
2014,07,15,01,03,17.20
2014,07,15,01,04,17.20
2014,07,15,01,05,17.20
2014,07,15,01,06,17.10
2014,07,15,01,07,17.10
2014,07,15,01,08,17.10
2014,07,15,01,09,17.10
2014,07,15,01,10,17.10
2014,07,15,01,11,17.10
2014,07,15,01,12,17.10
2014,07,15,01,13,17.00
2014,07,15,01,14,17.00
2014,07,15,01,15,17.00
2014,07,15,01,16,17.00
2014,07,15,01,17,16.90
2014,07,15,01,18,16.90
2014,07,15,01,19,16.90
2014,07,15,01,20,16.90
2014,07,15,01,21,16.90
2014,07,15,01,22,16.90
2014,07,15,01,23,16.90
2014,07,15,01,24,16.90
2014,07,15,01,25,16.80
2014,07,15,01,26,16.80
2014,07,15,01,27,16.80
2014,07,15,01,28,16.80
2014,07,15,01,29,16.80
2014,07,15,01,30,16.80
2014,07,15,01,31,16.80
2014,07,15,01,32,16.80
2014,07,15,01,33,16.80
2014,07,15,01,34,16.70
2014,07,15,01,35,16.70
2014,07,15,01,36,16.70
2014,07,15,01,37,16.70
2014,07,15,01,38,16.70
2014,07,15,01,39,16.70
2014,07,15,01,40,16.70
2014,07,15,01,41,16.70
2014,07,15,01,42,16.60
2014,07,15,01,43,16.60
2014,07,15,01,44,16.60
2014,07,15,01,45,16.60
2014,07,15,01,46,16.60
2014,07,15,01,47,16.60
2014,07,15,01,48,16.60
2014,07,15,01,49,16.50
2014,07,15,01,50,16.50
2014,07,15,01,51,16.50
2014,07,15,01,52,16.40
2014,07,15,01,53,16.40
2014,07,15,01,54,16.40
2014,07,15,01,55,16.40
2014,07,15,01,56,16.40
2014,07,15,01,57,16.30
2014,07,15,01,58,16.30
2014,07,15,01,59,16.30
2014,07,15,02,00,16.30
2014,07,15,02,01,16.30
2014,07,15,02,02,16.20
2014,07,15,02,03,16.20
2014,07,15,02,04,16.20
2014,07,15,02,05,16.20
2014,07,15,02,06,16.20
2014,07,15,02,07,16.10
2014,07,15,02,08,16.10
2014,07,15,02,09,16.10
2014,07,15,02,10,16.10
2014,07,15,02,11,16.10
2014,07,15,02,12,16.10
2014,07,15,02,13,16.10
2014,07,15,02,14,16.10
2014,07,15,02,15,16.10
2014,07,15,02,16,16.10
2014,07,15,02,17,16.10
2014,07,15,02,18,16.10
2014,07,15,02,19,16.10
2014,07,15,02,20,16.10
2014,07,15,02,21,16.10
2014,07,15,02,22,16.10
2014,07,15,02,23,16.10
2014,07,15,02,24,16.10
2014,07,15,02,25,16.10
2014,07,15,02,26,16.10
2014,07,15,02,27,16.10
2014,07,15,02,28,16.10
2014,07,15,02,29,16.10
2014,07,15,02,30,16.10
2014,07,15,02,31,16.10
2014,07,15,02,32,16.10
2014,07,15,02,33,16.10
2014,07,15,02,34,16.10
2014,07,15,02,35,16.10
2014,07,15,02,36,16.10
2014,07,15,02,37,16.10
2014,07,15,02,38,16.10
2014,07,15,02,39,16.00
2014,07,15,02,40,16.00
2014,07,15,02,41,16.00
2014,07,15,02,42,16.00
2014,07,15,02,43,16.00
2014,07,15,02,44,16.00
2014,07,15,02,45,15.90
2014,07,15,02,46,15.90
2014,07,15,02,47,15.90
2014,07,15,02,48,15.90
2014,07,15,02,49,15.80
2014,07,15,02,50,15.80
2014,07,15,02,51,15.80
2014,07,15,02,52,15.80
2014,07,15,02,53,15.80
2014,07,15,02,54,15.70
2014,07,15,02,55,15.70
2014,07,15,02,56,15.70
2014,07,15,02,57,15.70
2014,07,15,02,58,15.70
2014,07,15,02,59,15.70
2014,07,15,03,00,15.60
2014,07,15,03,01,15.60
2014,07,15,03,02,15.60
2014,07,15,03,03,15.50
2014,07,15,03,04,15.50
2014,07,15,03,05,15.50
2014,07,15,03,06,15.40
2014,07,15,03,07,15.40
2014,07,15,03,08,15.40
2014,07,15,03,09,15.40
2014,07,15,03,10,15.40
2014,07,15,03,11,15.30
2014,07,15,03,12,15.30
2014,07,15,03,13,15.30
2014,07,15,03,14,15.30
2014,07,15,03,15,15.30
2014,07,15,03,16,15.30
2014,07,15,03,17,15.30
2014,07,15,03,18,15.30
2014,07,15,03,19,15.30
2014,07,15,03,20,15.30
2014,07,15,03,21,15.30
2014,07,15,03,22,15.30
2014,07,15,03,23,15.20
2014,07,15,03,24,15.20
2014,07,15,03,25,15.20
2014,07,15,03,26,15.20
2014,07,15,03,27,15.20
2014,07,15,03,28,15.20
2014,07,15,03,29,15.10
2014,07,15,03,30,15.10
2014,07,15,03,31,15.10
2014,07,15,03,32,15.10
2014,07,15,03,33,15.00
2014,07,15,03,34,15.00
2014,07,15,03,35,15.00
2014,07,15,03,36,15.00
2014,07,15,03,37,15.00
2014,07,15,03,38,15.00
2014,07,15,03,39,15.00
2014,07,15,03,40,14.90
2014,07,15,03,41,14.90
2014,07,15,03,42,14.90
2014,07,15,03,43,14.90
2014,07,15,03,44,14.90
2014,07,15,03,45,14.90
2014,07,15,03,46,14.90
2014,07,15,03,47,14.90
2014,07,15,03,48,14.90
2014,07,15,03,49,14.90
2014,07,15,03,50,14.80
2014,07,15,03,51,14.80
2014,07,15,03,52,14.80
2014,07,15,03,53,14.80
2014,07,15,03,54,14.80
2014,07,15,03,55,14.80
2014,07,15,03,56,14.80
2014,07,15,03,57,14.80
2014,07,15,03,58,14.80
2014,07,15,03,59,14.80
2014,07,15,04,00,14.80
2014,07,15,04,01,14.80
2014,07,15,04,02,14.80
2014,07,15,04,03,14.80
2014,07,15,04,04,14.80
2014,07,15,04,05,14.80
2014,07,15,04,06,14.80
2014,07,15,04,07,14.80
2014,07,15,04,08,14.80
2014,07,15,04,09,14.80
2014,07,15,04,10,14.70
2014,07,15,04,11,14.80
2014,07,15,04,12,14.70
2014,07,15,04,13,14.70
2014,07,15,04,14,14.80
2014,07,15,04,15,14.80
2014,07,15,04,16,14.80
2014,07,15,04,17,14.80
2014,07,15,04,18,14.70
2014,07,15,04,19,14.70
2014,07,15,04,20,14.70
2014,07,15,04,21,14.70
2014,07,15,04,22,14.70
2014,07,15,04,23,14.70
2014,07,15,04,24,14.70
2014,07,15,04,25,14.70
2014,07,15,04,26,14.70
2014,07,15,04,27,14.70
2014,07,15,04,28,14.70
2014,07,15,04,29,14.70
2014,07,15,04,30,14.70
2014,07,15,04,31,14.70
2014,07,15,04,32,14.70
2014,07,15,04,33,14.70
2014,07,15,04,34,14.70
2014,07,15,04,35,14.80
2014,07,15,04,36,14.70
2014,07,15,04,37,14.70
2014,07,15,04,38,14.70
2014,07,15,04,39,14.70
2014,07,15,04,40,14.70
2014,07,15,04,41,14.70
2014,07,15,04,42,14.70
2014,07,15,04,43,14.70
2014,07,15,04,44,14.70
2014,07,15,04,45,14.70
2014,07,15,04,46,14.70
2014,07,15,04,47,14.60
2014,07,15,04,48,14.60
2014,07,15,04,49,14.60
2014,07,15,04,50,14.60
2014,07,15,04,51,14.60
2014,07,15,04,52,14.50
2014,07,15,04,53,14.50
2014,07,15,04,54,14.40
2014,07,15,04,55,14.40
2014,07,15,04,56,14.40
2014,07,15,04,57,14.40
2014,07,15,04,58,14.40
2014,07,15,04,59,14.40
2014,07,15,05,00,14.50
2014,07,15,05,01,14.40
2014,07,15,05,02,14.40
2014,07,15,05,03,14.40
2014,07,15,05,04,14.40
2014,07,15,05,05,14.40
2014,07,15,05,06,14.40
2014,07,15,05,07,14.40
2014,07,15,05,08,14.40
2014,07,15,05,09,14.40
2014,07,15,05,10,14.40
2014,07,15,05,11,14.40
2014,07,15,05,12,14.40
2014,07,15,05,13,14.40
2014,07,15,05,14,14.40
2014,07,15,05,15,14.40
2014,07,15,05,16,14.30
2014,07,15,05,17,14.30
2014,07,15,05,18,14.30
2014,07,15,05,19,14.30
2014,07,15,05,20,14.30
2014,07,15,05,21,14.30
2014,07,15,05,22,14.30
2014,07,15,05,23,14.30
2014,07,15,05,24,14.30
2014,07,15,05,25,14.30
2014,07,15,05,26,14.30
2014,07,15,05,27,14.30
2014,07,15,05,28,14.20
2014,07,15,05,29,14.20
2014,07,15,05,30,14.20
2014,07,15,05,31,14.20
2014,07,15,05,32,14.20
2014,07,15,05,33,14.20
2014,07,15,05,34,14.20
2014,07,15,05,35,14.20
2014,07,15,05,36,14.20
2014,07,15,05,37,14.20
2014,07,15,05,38,14.20
2014,07,15,05,39,14.20
2014,07,15,05,40,14.20
2014,07,15,05,41,14.20
2014,07,15,05,42,14.20
2014,07,15,05,43,14.10
2014,07,15,05,44,14.10
2014,07,15,05,45,14.10
2014,07,15,05,46,14.10
2014,07,15,05,47,14.10
2014,07,15,05,48,14.10
2014,07,15,05,49,14.10
2014,07,15,05,50,14.10
2014,07,15,05,51,14.10
2014,07,15,05,52,14.10
2014,07,15,05,53,14.10
2014,07,15,05,54,14.10
2014,07,15,05,55,14.10
2014,07,15,05,56,14.10
2014,07,15,05,57,14.10
2014,07,15,05,58,14.10
2014,07,15,05,59,14.10
2014,07,15,06,00,14.10
2014,07,15,06,01,14.10
2014,07,15,06,02,14.10
2014,07,15,06,03,14.10
2014,07,15,06,04,14.10
2014,07,15,06,05,14.10
2014,07,15,06,06,14.10
2014,07,15,06,07,14.10
2014,07,15,06,08,14.10
2014,07,15,06,09,14.10
2014,07,15,06,10,14.10
2014,07,15,06,11,14.10
2014,07,15,06,12,14.10
2014,07,15,06,13,14.10
2014,07,15,06,14,14.10
2014,07,15,06,15,14.10
2014,07,15,06,16,14.10
2014,07,15,06,17,14.10
2014,07,15,06,18,14.10
2014,07,15,06,19,14.10
2014,07,15,06,20,14.10
2014,07,15,06,21,14.10
2014,07,15,06,22,14.10
2014,07,15,06,23,14.10
2014,07,15,06,24,14.10
2014,07,15,06,25,14.10
2014,07,15,06,26,14.10
2014,07,15,06,27,14.10
2014,07,15,06,28,14.10
2014,07,15,06,29,14.10
2014,07,15,06,30,14.20
2014,07,15,06,31,14.20
2014,07,15,06,32,14.20
2014,07,15,06,33,14.30
2014,07,15,06,34,14.30
2014,07,15,06,35,14.30
2014,07,15,06,36,14.30
2014,07,15,06,37,14.40
2014,07,15,06,38,14.40
2014,07,15,06,39,14.40
2014,07,15,06,40,14.50
2014,07,15,06,41,14.50
2014,07,15,06,42,14.60
2014,07,15,06,43,14.60
2014,07,15,06,44,14.60
2014,07,15,06,45,14.70
2014,07,15,06,46,14.70
2014,07,15,06,47,14.80
2014,07,15,06,48,14.80
2014,07,15,06,49,14.90
2014,07,15,06,50,14.90
2014,07,15,06,51,14.90
2014,07,15,06,52,15.00
2014,07,15,06,53,15.00
2014,07,15,06,54,15.10
2014,07,15,06,55,15.20
2014,07,15,06,56,15.20
2014,07,15,06,57,15.30
2014,07,15,06,58,15.30
2014,07,15,06,59,15.30
2014,07,15,07,00,15.40
2014,07,15,07,01,15.40
2014,07,15,07,02,15.40
2014,07,15,07,03,15.40
2014,07,15,07,04,15.40
2014,07,15,07,05,15.40
2014,07,15,07,06,15.40
2014,07,15,07,07,15.40
2014,07,15,07,08,15.40
2014,07,15,07,09,15.40
2014,07,15,07,10,15.40
2014,07,15,07,11,15.40
2014,07,15,07,12,15.40
2014,07,15,07,13,15.40
2014,07,15,07,14,15.40
2014,07,15,07,15,15.40
2014,07,15,07,16,15.40
2014,07,15,07,17,15.40
2014,07,15,07,18,15.50
2014,07,15,07,19,15.50
2014,07,15,07,20,15.50
2014,07,15,07,21,15.50
2014,07,15,07,22,15.60
2014,07,15,07,23,15.60
2014,07,15,07,24,15.60
2014,07,15,07,25,15.60
2014,07,15,07,26,15.70
2014,07,15,07,27,15.70
2014,07,15,07,28,15.80
2014,07,15,07,29,15.80
2014,07,15,07,30,15.90
2014,07,15,07,31,16.00
2014,07,15,07,32,16.00
2014,07,15,07,33,16.10
2014,07,15,07,34,16.10
2014,07,15,07,35,16.20
2014,07,15,07,36,16.20
2014,07,15,07,37,16.30
2014,07,15,07,38,16.30
2014,07,15,07,39,16.40
2014,07,15,07,40,16.50
2014,07,15,07,41,16.50
2014,07,15,07,42,16.60
2014,07,15,07,43,16.60
2014,07,15,07,44,16.60
2014,07,15,07,45,16.60
2014,07,15,07,46,16.60
2014,07,15,07,47,16.60
2014,07,15,07,48,16.60
2014,07,15,07,49,16.60
2014,07,15,07,50,16.70
2014,07,15,07,51,16.70
2014,07,15,07,52,16.70
2014,07,15,07,53,16.80
2014,07,15,07,54,16.80
2014,07,15,07,55,16.90
2014,07,15,07,56,16.90
2014,07,15,07,57,17.00
2014,07,15,07,58,17.00
2014,07,15,07,59,17.10
2014,07,15,08,00,17.10
2014,07,15,08,01,17.10
2014,07,15,08,02,17.00
2014,07,15,08,03,17.00
2014,07,15,08,04,17.00
2014,07,15,08,05,17.00
2014,07,15,08,06,16.90
2014,07,15,08,07,16.90
2014,07,15,08,08,16.90
2014,07,15,08,09,16.90
2014,07,15,08,10,16.90
2014,07,15,08,11,16.90
2014,07,15,08,12,16.90
2014,07,15,08,13,16.90
2014,07,15,08,14,16.80
2014,07,15,08,15,16.80
2014,07,15,08,16,16.80
2014,07,15,08,17,16.80
2014,07,15,08,18,16.70
2014,07,15,08,19,16.70
2014,07,15,08,20,16.70
2014,07,15,08,21,16.70
2014,07,15,08,22,16.70
2014,07,15,08,23,16.70
2014,07,15,08,24,16.70
2014,07,15,08,25,16.80
2014,07,15,08,26,16.90
2014,07,15,08,27,17.00
2014,07,15,08,28,17.10
2014,07,15,08,29,17.20
2014,07,15,08,30,17.20
2014,07,15,08,31,17.20
2014,07,15,08,32,17.30
2014,07,15,08,33,17.20
2014,07,15,08,34,17.20
2014,07,15,08,35,17.20
2014,07,15,08,36,17.20
2014,07,15,08,37,17.20
2014,07,15,08,38,17.20
2014,07,15,08,39,17.20
2014,07,15,08,40,17.20
2014,07,15,08,41,17.20
2014,07,15,08,42,17.30
2014,07,15,08,43,17.30
2014,07,15,08,44,17.30
2014,07,15,08,45,17.40
2014,07,15,08,46,17.40
2014,07,15,08,47,17.40
2014,07,15,08,48,17.50
2014,07,15,08,49,17.50
2014,07,15,08,50,17.50
2014,07,15,08,51,17.60
2014,07,15,08,52,17.60
2014,07,15,08,53,17.60
2014,07,15,08,54,17.70
2014,07,15,08,55,17.70
2014,07,15,08,56,17.70
2014,07,15,08,57,17.80
2014,07,15,08,58,17.80
2014,07,15,08,59,17.80
2014,07,15,09,00,17.80
2014,07,15,09,01,17.80
2014,07,15,09,02,17.80
2014,07,15,09,03,17.80
2014,07,15,09,04,17.90
2014,07,15,09,05,17.90
2014,07,15,09,06,18.00
2014,07,15,09,07,18.00
2014,07,15,09,08,18.10
2014,07,15,09,09,18.10
2014,07,15,09,10,18.20
2014,07,15,09,11,18.20
2014,07,15,09,12,18.20
2014,07,15,09,13,18.20
2014,07,15,09,14,18.30
2014,07,15,09,15,18.30
2014,07,15,09,16,18.40
2014,07,15,09,17,18.50
2014,07,15,09,18,18.70
2014,07,15,09,19,18.80
2014,07,15,09,20,19.00
2014,07,15,09,21,19.10
2014,07,15,09,22,19.10
2014,07,15,09,23,19.20
2014,07,15,09,24,19.30
2014,07,15,09,25,19.40
2014,07,15,09,26,19.40
2014,07,15,09,27,19.50
2014,07,15,09,28,19.50
2014,07,15,09,29,19.60
2014,07,15,09,30,19.70
2014,07,15,09,31,19.80
2014,07,15,09,32,19.90
2014,07,15,09,33,20.00
2014,07,15,09,34,20.10
2014,07,15,09,35,20.20
2014,07,15,09,36,20.30
2014,07,15,09,37,20.40
2014,07,15,09,38,20.50
2014,07,15,09,39,20.60
2014,07,15,09,40,20.70
2014,07,15,09,41,20.70
2014,07,15,09,42,20.70
2014,07,15,09,43,20.70
2014,07,15,09,44,20.80
2014,07,15,09,45,20.80
2014,07,15,09,46,20.80
2014,07,15,09,47,20.80
2014,07,15,09,48,20.80
2014,07,15,09,49,20.80
2014,07,15,09,50,20.90
2014,07,15,09,51,20.90
2014,07,15,09,52,21.00
2014,07,15,09,53,21.10
2014,07,15,09,54,21.10
2014,07,15,09,55,21.10
2014,07,15,09,56,21.10
2014,07,15,09,57,21.00
2014,07,15,09,58,21.00
2014,07,15,09,59,21.00
2014,07,15,10,00,21.00
2014,07,15,10,01,21.00
2014,07,15,10,02,20.90
2014,07,15,10,03,20.90
2014,07,15,10,04,20.90
2014,07,15,10,05,20.90
2014,07,15,10,06,20.90
2014,07,15,10,07,21.00
2014,07,15,10,08,21.00
2014,07,15,10,09,21.10
2014,07,15,10,10,21.10
2014,07,15,10,11,21.10
2014,07,15,10,12,21.20
2014,07,15,10,13,21.20
2014,07,15,10,14,21.20
2014,07,15,10,15,21.20
2014,07,15,10,16,21.30
2014,07,15,10,17,21.30
2014,07,15,10,18,21.40
2014,07,15,10,19,21.40
2014,07,15,10,20,21.40
2014,07,15,10,21,21.40
2014,07,15,10,22,21.40
2014,07,15,10,23,21.50
2014,07,15,10,24,21.50
2014,07,15,10,25,21.50
2014,07,15,10,26,21.50
2014,07,15,10,27,21.50
2014,07,15,10,28,21.50
2014,07,15,10,29,21.60
2014,07,15,10,30,21.60
2014,07,15,10,31,21.70
2014,07,15,10,32,21.70
2014,07,15,10,33,21.80
2014,07,15,10,34,21.80
2014,07,15,10,35,21.80
2014,07,15,10,36,21.90
2014,07,15,10,37,21.90
2014,07,15,10,38,22.00
2014,07,15,10,39,22.00
2014,07,15,10,40,22.00
2014,07,15,10,41,22.00
2014,07,15,10,42,22.10
2014,07,15,10,43,22.10
2014,07,15,10,44,22.20
2014,07,15,10,45,22.20
2014,07,15,10,46,22.30
2014,07,15,10,47,22.30
2014,07,15,10,48,22.30
2014,07,15,10,49,22.40
2014,07,15,10,50,22.40
2014,07,15,10,51,22.50
2014,07,15,10,52,22.60
2014,07,15,10,53,22.70
2014,07,15,10,54,22.70
2014,07,15,10,55,22.80
2014,07,15,10,56,22.80
2014,07,15,10,57,22.90
2014,07,15,10,58,22.90
2014,07,15,10,59,23.00
2014,07,15,11,00,23.10
2014,07,15,11,01,23.10
2014,07,15,11,02,23.20
2014,07,15,11,03,23.20
2014,07,15,11,04,23.20
2014,07,15,11,05,23.20
2014,07,15,11,06,23.20
2014,07,15,11,07,23.20
2014,07,15,11,08,23.30
2014,07,15,11,09,23.30
2014,07,15,11,10,23.40
2014,07,15,11,11,23.40
2014,07,15,11,12,23.50
2014,07,15,11,13,23.60
2014,07,15,11,14,23.60
2014,07,15,11,15,23.70
2014,07,15,11,16,23.80
2014,07,15,11,17,23.80
2014,07,15,11,18,23.80
2014,07,15,11,19,23.90
2014,07,15,11,20,23.90
2014,07,15,11,21,24.00
2014,07,15,11,22,24.10
2014,07,15,11,23,24.10
2014,07,15,11,24,24.10
2014,07,15,11,25,24.10
2014,07,15,11,26,24.20
2014,07,15,11,27,24.30
2014,07,15,11,28,24.40
2014,07,15,11,29,24.40
2014,07,15,11,30,24.40
2014,07,15,11,31,24.50
2014,07,15,11,32,24.50
2014,07,15,11,33,24.60
2014,07,15,11,34,24.60
2014,07,15,11,35,24.70
2014,07,15,11,36,24.70
2014,07,15,11,37,24.60
2014,07,15,11,38,24.60
2014,07,15,11,39,24.60
2014,07,15,11,40,24.70
2014,07,15,11,41,24.70
2014,07,15,11,42,24.80
2014,07,15,11,43,24.80
2014,07,15,11,44,24.80
2014,07,15,11,45,24.80
2014,07,15,11,46,24.80
2014,07,15,11,47,24.70
2014,07,15,11,48,24.70
2014,07,15,11,49,24.70
2014,07,15,11,50,24.80
2014,07,15,11,51,24.80
2014,07,15,11,52,24.80
2014,07,15,11,53,24.90
2014,07,15,11,54,24.90
2014,07,15,11,55,25.00
2014,07,15,11,56,25.00
2014,07,15,11,57,25.10
2014,07,15,11,58,25.10
2014,07,15,11,59,25.10
2014,07,15,12,00,25.20
2014,07,15,12,01,25.20
2014,07,15,12,02,25.30
2014,07,15,12,03,25.30
2014,07,15,12,04,25.30
2014,07,15,12,05,25.40
2014,07,15,12,06,25.40
2014,07,15,12,07,25.40
2014,07,15,12,08,25.50
2014,07,15,12,09,25.60
2014,07,15,12,10,25.60
2014,07,15,12,11,25.60
2014,07,15,12,12,25.60
2014,07,15,12,13,25.60
2014,07,15,12,14,25.60
2014,07,15,12,15,25.70
2014,07,15,12,16,25.70
2014,07,15,12,17,25.80
2014,07,15,12,18,25.80
2014,07,15,12,19,25.90
2014,07,15,12,20,26.00
2014,07,15,12,21,26.00
2014,07,15,12,22,26.00
2014,07,15,12,23,26.00
2014,07,15,12,24,26.00
2014,07,15,12,25,26.10
2014,07,15,12,26,26.20
2014,07,15,12,27,26.20
2014,07,15,12,28,26.30
2014,07,15,12,29,26.40
2014,07,15,12,30,26.40
2014,07,15,12,31,26.50
2014,07,15,12,32,26.60
2014,07,15,12,33,26.70
2014,07,15,12,34,26.70
2014,07,15,12,35,26.80
2014,07,15,12,36,26.70
2014,07,15,12,37,26.80
2014,07,15,12,38,26.90
2014,07,15,12,39,27.00
2014,07,15,12,40,27.10
2014,07,15,12,41,27.30
2014,07,15,12,42,27.40
2014,07,15,12,43,27.50
2014,07,15,12,44,27.70
2014,07,15,12,45,27.90
2014,07,15,12,46,28.00
2014,07,15,12,47,28.10
2014,07,15,12,48,28.20
2014,07,15,12,49,28.30
2014,07,15,12,50,28.30
2014,07,15,12,51,28.40
2014,07,15,12,52,28.40
2014,07,15,12,53,28.50
2014,07,15,12,54,28.60
2014,07,15,12,55,28.60
2014,07,15,12,56,28.70
2014,07,15,12,57,28.70
2014,07,15,12,58,28.80
2014,07,15,12,59,28.80
2014,07,15,13,00,28.80
2014,07,15,13,01,28.90
2014,07,15,13,02,29.00
2014,07,15,13,03,29.10
2014,07,15,13,04,29.20
2014,07,15,13,05,29.30
2014,07,15,13,06,29.30
2014,07,15,13,07,29.30
2014,07,15,13,08,29.30
2014,07,15,13,09,29.30
2014,07,15,13,10,29.30
2014,07,15,13,11,29.30
2014,07,15,13,12,29.30
2014,07,15,13,13,29.30
2014,07,15,13,14,29.30
2014,07,15,13,15,29.30
2014,07,15,13,16,29.30
2014,07,15,13,17,29.40
2014,07,15,13,18,29.40
2014,07,15,13,19,29.50
2014,07,15,13,20,29.60
2014,07,15,13,21,29.70
2014,07,15,13,22,29.80
2014,07,15,13,23,29.80
2014,07,15,13,24,29.80
2014,07,15,13,25,29.80
2014,07,15,13,26,29.80
2014,07,15,13,27,29.80
2014,07,15,13,28,29.80
2014,07,15,13,29,29.80
2014,07,15,13,30,29.80
2014,07,15,13,31,29.80
2014,07,15,13,32,29.80
2014,07,15,13,33,29.80
2014,07,15,13,34,29.80
2014,07,15,13,35,29.90
2014,07,15,13,36,29.90
2014,07,15,13,37,30.00
2014,07,15,13,38,30.10
2014,07,15,13,39,30.10
2014,07,15,13,40,30.20
2014,07,15,13,41,30.30
2014,07,15,13,42,30.30
2014,07,15,13,43,30.30
2014,07,15,13,44,30.40
2014,07,15,13,45,30.40
2014,07,15,13,46,30.50
2014,07,15,13,47,30.60
2014,07,15,13,48,30.60
2014,07,15,13,49,30.60
2014,07,15,13,50,30.60
2014,07,15,13,51,30.60
2014,07,15,13,52,30.70
2014,07,15,13,53,30.70
2014,07,15,13,54,30.70
2014,07,15,13,55,30.70
2014,07,15,13,56,30.70
2014,07,15,13,57,30.70
2014,07,15,13,58,30.70
2014,07,15,13,59,30.70
2014,07,15,14,00,30.80
2014,07,15,14,01,30.80
2014,07,15,14,02,30.90
2014,07,15,14,03,30.90
2014,07,15,14,04,30.90
2014,07,15,14,05,30.90
2014,07,15,14,06,30.90
2014,07,15,14,07,30.90
2014,07,15,14,08,30.90
2014,07,15,14,09,30.90
2014,07,15,14,10,30.90
2014,07,15,14,11,30.90
2014,07,15,14,12,30.90
2014,07,15,14,13,30.90
2014,07,15,14,14,30.90
2014,07,15,14,15,30.90
2014,07,15,14,16,30.80
2014,07,15,14,17,30.70
2014,07,15,14,18,30.60
2014,07,15,14,19,30.60
2014,07,15,14,20,30.60
2014,07,15,14,21,30.60
2014,07,15,14,22,30.60
2014,07,15,14,23,30.60
2014,07,15,14,24,30.60
2014,07,15,14,25,30.70
2014,07,15,14,26,30.60
2014,07,15,14,27,30.70
2014,07,15,14,28,30.70
2014,07,15,14,29,30.80
2014,07,15,14,30,30.80
2014,07,15,14,31,30.90
2014,07,15,14,32,31.00
2014,07,15,14,33,31.10
2014,07,15,14,34,31.10
2014,07,15,14,35,31.10
2014,07,15,14,36,31.10
2014,07,15,14,37,31.10
2014,07,15,14,38,31.00
2014,07,15,14,39,31.00
2014,07,15,14,40,30.90
2014,07,15,14,41,30.90
2014,07,15,14,42,30.90
2014,07,15,14,43,30.90
2014,07,15,14,44,30.90
2014,07,15,14,45,30.80
2014,07,15,14,46,30.80
2014,07,15,14,47,30.90
2014,07,15,14,48,30.90
2014,07,15,14,49,31.00
2014,07,15,14,50,31.10
2014,07,15,14,51,31.20
2014,07,15,14,52,31.10
2014,07,15,14,53,31.00
2014,07,15,14,54,31.00
2014,07,15,14,55,31.00
2014,07,15,14,56,31.00
2014,07,15,14,57,30.90
2014,07,15,14,58,30.90
2014,07,15,14,59,31.00
2014,07,15,15,00,31.00
2014,07,15,15,01,31.10
2014,07,15,15,02,31.00
2014,07,15,15,03,31.00
2014,07,15,15,04,31.00
2014,07,15,15,05,30.90
2014,07,15,15,06,30.90
2014,07,15,15,07,30.80
2014,07,15,15,08,30.90
2014,07,15,15,09,30.90
2014,07,15,15,10,30.90
2014,07,15,15,11,30.90
2014,07,15,15,12,30.90
2014,07,15,15,13,31.00
2014,07,15,15,14,31.00
2014,07,15,15,15,30.90
2014,07,15,15,16,31.00
2014,07,15,15,17,31.00
2014,07,15,15,18,31.00
2014,07,15,15,19,31.00
2014,07,15,15,20,31.00
2014,07,15,15,21,31.00
2014,07,15,15,22,30.90
2014,07,15,15,23,30.90
2014,07,15,15,24,30.90
2014,07,15,15,25,31.00
2014,07,15,15,26,31.10
2014,07,15,15,27,31.10
2014,07,15,15,28,31.10
2014,07,15,15,29,31.10
2014,07,15,15,30,31.20
2014,07,15,15,31,31.20
2014,07,15,15,32,31.20
2014,07,15,15,33,31.20
2014,07,15,15,34,31.20
2014,07,15,15,35,31.20
2014,07,15,15,36,31.10
2014,07,15,15,37,30.90
2014,07,15,15,38,30.70
2014,07,15,15,39,30.60
2014,07,15,15,40,30.40
2014,07,15,15,41,30.40
2014,07,15,15,42,30.30
2014,07,15,15,43,30.40
2014,07,15,15,44,30.40
2014,07,15,15,45,30.50
2014,07,15,15,46,30.60
2014,07,15,15,47,30.60
2014,07,15,15,48,30.60
2014,07,15,15,49,30.50
2014,07,15,15,50,30.50
2014,07,15,15,51,30.50
2014,07,15,15,52,30.60
2014,07,15,15,53,30.60
2014,07,15,15,54,30.60
2014,07,15,15,55,30.70
2014,07,15,15,56,30.70
2014,07,15,15,57,30.80
2014,07,15,15,58,30.80
2014,07,15,15,59,30.80
2014,07,15,16,00,30.70
2014,07,15,16,01,30.70
2014,07,15,16,02,30.70
2014,07,15,16,03,30.70
2014,07,15,16,04,30.70
2014,07,15,16,05,30.70
2014,07,15,16,06,30.70
2014,07,15,16,07,30.70
2014,07,15,16,08,30.70
2014,07,15,16,09,30.70
2014,07,15,16,10,30.70
2014,07,15,16,11,30.70
2014,07,15,16,12,30.70
2014,07,15,16,13,30.70
2014,07,15,16,14,30.70
2014,07,15,16,15,30.70
2014,07,15,16,16,30.70
2014,07,15,16,17,30.80
2014,07,15,16,18,30.80
2014,07,15,16,19,30.80
2014,07,15,16,20,30.70
2014,07,15,16,21,30.70
2014,07,15,16,22,30.60
2014,07,15,16,23,30.60
2014,07,15,16,24,30.50
2014,07,15,16,25,30.50
2014,07,15,16,26,30.50
2014,07,15,16,27,30.40
2014,07,15,16,28,30.40
2014,07,15,16,29,30.40
2014,07,15,16,30,30.40
2014,07,15,16,31,30.50
2014,07,15,16,32,30.50
2014,07,15,16,33,30.50
2014,07,15,16,34,30.50
2014,07,15,16,35,30.40
2014,07,15,16,36,30.40
2014,07,15,16,37,30.30
2014,07,15,16,38,30.30
2014,07,15,16,39,30.30
2014,07,15,16,40,30.30
2014,07,15,16,41,30.30
2014,07,15,16,42,30.40
2014,07,15,16,43,30.40
2014,07,15,16,44,30.40
2014,07,15,16,45,30.40
2014,07,15,16,46,30.40
2014,07,15,16,47,30.50
2014,07,15,16,48,30.50
2014,07,15,16,49,30.50
2014,07,15,16,50,30.60
2014,07,15,16,51,30.70
2014,07,15,16,52,30.70
2014,07,15,16,53,30.70
2014,07,15,16,54,30.70
2014,07,15,16,55,30.70
2014,07,15,16,56,30.70
2014,07,15,16,57,30.70
2014,07,15,16,58,30.60
2014,07,15,16,59,30.60
2014,07,15,17,00,30.50
2014,07,15,17,01,30.50
2014,07,15,17,02,30.50
2014,07,15,17,03,30.60
2014,07,15,17,04,30.60
2014,07,15,17,05,30.70
2014,07,15,17,06,30.70
2014,07,15,17,07,30.70
2014,07,15,17,08,30.70
2014,07,15,17,09,30.60
2014,07,15,17,10,30.60
2014,07,15,17,11,30.60
2014,07,15,17,12,30.60
2014,07,15,17,13,30.60
2014,07,15,17,14,30.70
2014,07,15,17,15,30.70
2014,07,15,17,16,30.60
2014,07,15,17,17,30.60
2014,07,15,17,18,30.50
2014,07,15,17,19,30.40